Regional Weather Roundup
Issued by NWS Newport/Morehead, NC

Current Version | Previous Version | Text Only | Print | Product List | Glossary On
Versions: 1 2 3 4 5 6 7 8 9 10 11 12 13 14 15 16 17 18 19 20 21 22 23 24 25 26 27 28 29 30 31 32 33 34 35 36 37 38 39 40 41 42 43 44 45 46 47 48 49 50
000 ASUS42 KMHX 221714 RWRMHX WEATHER ROUNDUP FOR EASTERN NORTH CAROLINA NATIONAL WEATHER SERVICE NEWPORT/MOREHEAD CITY NC 100 PM EDT TUE AUG 22 2017 NOTE: "FAIR" INDICATES FEW OR NO CLOUDS BELOW 12,000 FEET WITH NO SIGNIFICANT WEATHER AND/OR OBSTRUCTIONS TO VISIBILITY NCZ015>017-031-032-045>047-102-103-221800- NORTH COAST CITY SKY/WX TMP DP RH WIND PRES REMARKS EDENTON SUNNY 87 76 68 CALM 30.08F ELIZABETH CITY SUNNY 88 77 69 S10 30.06F HX 100 KITTY HAWK CLOUDY 83 74 75 CALM 30.07F MANTEO SUNNY 85 76 74 S13 30.08F $$ NCZ045>047-081-094-103-104-221800- CENTRAL COAST CITY SKY/WX TMP DP RH WIND PRES REMARKS FRISCO SUNNY 87 77 72 VRB7 30.10F $$ NCZ095-097-098-100-101-221800- SOUTHERN COAST CITY SKY/WX TMP DP RH WIND PRES REMARKS BEAUFORT MOSUNNY 86 77 74 S9 30.11S CEDAR ISLAND NOT AVBL JACKSONVILLE TSTM 77 76 96 S5 30.09F FOG PINEY ISLAND LGT RAIN N/A N/A N/A W7 30.09F WILMINGTON PTSUNNY 87 76 69 SE8 30.09F $$ NCZ011>013-027>030-043-044-078>080-089-090>093-098-221800- COASTAL PLAIN CITY SKY/WX TMP DP RH WIND PRES REMARKS AHOSKIE N/A 84 74 73 CALM 30.07F CLINTON MOSUNNY 83 79 88 CALM 30.09F ELIZABETHTOWN NOT AVBL GOLDSBORO PTSUNNY 88 77 70 SW7 30.06F HX 100 GREENVILLE MOSUNNY 86 73 66 SW6 30.08F HAVELOCK LGT RAIN 75 73 93 NW9 30.12S VSB 1 KENANSVILLE LGT RAIN 75 73 94 S3 30.10S KINSTON MOSUNNY 90 75 62 CALM 30.08F HX 100 NEW BERN LGT RAIN 80 78 94 SE3 30.11S FOG RICHLANDS CLOUDY 81 76 84 SE5 30.10S ROCKY MOUNT MOSUNNY 88 75 65 SW6 30.07F WASHINGTON MOSUNNY 87 74 66 S3 30.08F WHITEVILLE MOSUNNY 88 74 63 S3 30.08F $$ AMZ130-135-150-152-154-156-158-170-250-252-270-ANZ085-086-088-633-658-670-221800- MARINE OBSERVATIONS STATION/POSITION TIME TEMP WIND PRES WAVE SWELL AIR SEA DIR/SP/G HT/PER HT/PER (UTC) (F) (DEG/KT/KT) (MB) (FT/S) (FT/S) CHESAPEAKE LIGHT NOT AVBL 64 E VA BEACH 1650 80 80 200/ 10/ 12 1018.9 3/11 2/11 DUCK 1642 82 76 130/ 11/ 12 1018.0 2 E DUCK 1700 82 N/A 2/12 2/12 OREGON INLET 1642 84 80 160/ 9/ 12 1018.7 13E OREGON INLT 1648 81 N/A 3/ 9 3/ 9 HATTERAS CG 1642 85 83 180/ 6/ 9 1019.3 DIAMOND BUOY 1650 83 87 200/ 10/ 12 1019.2 3/10 3/10 CAPE LOOKOUT 1700 85 200/ 7/ 8 1019.0 BEAUFORT LAB 1642 83 81 190/ 7/ 7 1018.9 30 SE NEW RVR IN 1608 83 84 190/ 6/ 8 1019.8 30 SE NEW RVR IN 1643 84 N/A 5/11 3/11 27 SE WRIGHTSVLE 1608 82 83 140/ 6/ 8 1019.7 5 SE WRIGHTSVLE 1608 82 83 180/ 6/ 8 1019.3 225 S CAPE HAT 1650 82 85 130/ 8/ 10 1020.2 5/10 5/10 41 SE CHARLESTON 1700 84 85 220/ 6/ 8 1019.1 $$

USA.gov is the U.S. government's official web portal to all federal, state and local government web resources and services.